(168070) = 2006 CK41

Discovered at Kitt Peak on 2006-02-02 by Spacewatch.

Orbit

Orbit type: Main Belt

Note: WebGL enabled browser required.

epoch2023-09-13.0
epoch JD2460200.5
perihelion date2020-08-09.63792
perihelion JD2459071.13792
argument of perihelion (°)107.57010
ascending node (°)196.97431
inclination (°)4.56451
eccentricity0.1663679
perihelion distance (AU)1.8539190
Tisserand w.r.t. Jupiter3.6
ΔV w.r.t. Earth (km/sec)8.5
semimajor axis (AU)2.2239054
mean anomaly (°)335.63139
mean daily motion (°/day)0.29718670
aphelion distance (AU)2.594
period (years)3.32
P-vector [x]0.56616211
P-vector [y]-0.78324355
P-vector [z]-0.25688519
Q-vector [x]0.82396643
Q-vector [y]0.52896930
Q-vector [z]0.20315216
absolute magnitude17.21
phase slope0.15
uncertainty0
referenceMPEC 2023-Q34
observations used498
oppositions13
arc length (days)7410
first opposition used2003
last opposition used2023
residual rms (arc-secs)0.82
perturbers coarse indicatorM-v
perturbers precise indicator003Ek
first observation date used2003-03-26.0
last observation date used2023-07-09.0
computer nameMPCLINUX
JD of orbit computation2456966.854342
perihelion JD uncertainty (days)1.2151E-04
argument of perihelion uncertainty (°)8.0080E-05
ascending node uncertainty (°)7.0518E-05
inclination uncertainty (°)1.2274E-05
eccentricity uncertainty 6.0444E-08
perihelion distance uncertainty (AU)1.3683E-07
Minimum Orbit Intersection Distances (in AU)
for orbit epoch: 2460200.5, reference: E2023-SH0
Mercury1.4211
Venus1.13431
Earth0.84466
Mars0.4727
Jupiter2.63051
Saturn6.51196
Uranus15.9301
Neptune27.5275

Observations

520 total observations over interval: 2003 03 26.38351 – 2023 07 09.209298
These data are available for download (format description).

Date (UT) J2000 RA J2000 Dec Magn Location Ref
2003 03 26.38351 13 52 38.70 -11 13 35.6 20.9 V 291 – LPL/Spacewatch II MPS 170865
2003 03 26.40714 13 52 37.71 -11 13 27.0 20.7 V 291 – LPL/Spacewatch II MPS 170866
2003 03 26.43081 13 52 36.78 -11 13 18.8 21.0 V 291 – LPL/Spacewatch II MPS 170866
2003 04 24.25943 13 27 19.59 -07 29 57.4 19.6 R 699 – Lowell Observatory-LONEOS MPS 170866
2003 04 24.27690 13 27 18.63 -07 29 47.9   699 – Lowell Observatory-LONEOS MPS 170866
2003 04 24.29435 13 27 17.59 -07 29 41.1   699 – Lowell Observatory-LONEOS MPS 170866
2003 04 24.31175 13 27 16.49 -07 29 33.2   699 – Lowell Observatory-LONEOS MPS 170866
2003 04 29.25301 13 22 46.28 -06 49 55.8 20.2 V 691 – Steward Observatory, Kitt Peak-Spacewatch MPS 170866
2003 04 29.26497 13 22 45.57 -06 49 51.7 18.7   704 – Lincoln Laboratory ETS, New Mexico MPS 170866
2003 04 29.27681 13 22 44.93 -06 49 46.0 19.3   704 – Lincoln Laboratory ETS, New Mexico MPS 170866
2003 04 29.28123 13 22 44.74 -06 49 42.6 20.3 V 691 – Steward Observatory, Kitt Peak-Spacewatch MPS 170866
2003 04 29.28859 13 22 44.26 -06 49 41.1 18.8   704 – Lincoln Laboratory ETS, New Mexico MPS 170866
2003 04 29.31063 13 22 43.11 -06 49 28.6 20.1 V 691 – Steward Observatory, Kitt Peak-Spacewatch MPS 170866
2003 04 29.31234 13 22 42.97 -06 49 29.0 19.2   704 – Lincoln Laboratory ETS, New Mexico MPS 170866
2003 05 05.22278 13 17 49.87 -06 05 49.1 20.3 V 691 – Steward Observatory, Kitt Peak-Spacewatch MPS 170866
2003 05 05.24868 13 17 48.66 -06 05 38.1 20.7 V 691 – Steward Observatory, Kitt Peak-Spacewatch MPS 170866
2003 05 05.28087 13 17 47.08 -06 05 24.8 20.3 V 691 – Steward Observatory, Kitt Peak-Spacewatch MPS 170866
2004 11 10.30267 03 48 57.44 +15 07 33.2 20.1 V 691 – Steward Observatory, Kitt Peak-Spacewatch MPS 178579
2004 11 10.33104 03 48 55.58 +15 07 24.1 20.1 V 691 – Steward Observatory, Kitt Peak-Spacewatch MPS 178579
2004 11 10.35758 03 48 53.79 +15 07 15.2 19.9 V 691 – Steward Observatory, Kitt Peak-Spacewatch MPS 178579
2006 02 02.44563 11 21 08.35 -00 36 46.0 21.1 V 691 – Steward Observatory, Kitt Peak-Spacewatch MPS 163365
2006 02 02.46304 11 21 07.82 -00 36 42.5 21.6 V 691 – Steward Observatory, Kitt Peak-Spacewatch MPS 163365
2006 02 02.48039 11 21 07.32 -00 36 40.6 21.3 V 691 – Steward Observatory, Kitt Peak-Spacewatch MPS 163365
2006 02 06.44273 11 19 02.96 -00 23 34.2   691 – Steward Observatory, Kitt Peak-Spacewatch MPS 163365
2006 02 06.46010 11 19 02.36 -00 23 30.8   691 – Steward Observatory, Kitt Peak-Spacewatch MPS 163365
2006 02 06.47740 11 19 01.71 -00 23 26.5   691 – Steward Observatory, Kitt Peak-Spacewatch MPS 163365
2006 03 29.11731 10 35 41.26 +05 17 53.2 20.8 V 691 – Steward Observatory, Kitt Peak-Spacewatch MPS 169926
2006 03 29.13606 10 35 40.48 +05 18 00.6 20.7 V 691 – Steward Observatory, Kitt Peak-Spacewatch MPS 169926
2006 03 29.15483 10 35 39.67 +05 18 08.5 20.7 V 691 – Steward Observatory, Kitt Peak-Spacewatch MPS 169926
2006 04 07.11579 10 30 36.20 +06 11 46.6 21.0 V 691 – Steward Observatory, Kitt Peak-Spacewatch MPS 169926
2006 04 07.13192 10 30 35.75 +06 11 51.5 20.9 V 691 – Steward Observatory, Kitt Peak-Spacewatch MPS 169926
2006 04 07.14804 10 30 35.28 +06 11 56.7 20.7 V 691 – Steward Observatory, Kitt Peak-Spacewatch MPS 169926
2007 09 02.40667 00 23 34.87 +06 24 04.2 19.2 V 703 – Catalina Sky Survey MPS 214459
2007 09 02.41306 00 23 34.65 +06 24 02.7 18.9 V 703 – Catalina Sky Survey MPS 214459
2007 09 02.41947 00 23 34.33 +06 24 00.1 19.1 V 703 – Catalina Sky Survey MPS 214459
2007 09 02.42590 00 23 34.04 +06 23 58.4 19.1 V 703 – Catalina Sky Survey MPS 214459
2007 09 05.44804 00 21 46.28 +06 04 12.8 19.6 R 699 – Lowell Observatory-LONEOS MPS 215162
2007 09 05.46454 00 21 45.59 +06 04 05.2   699 – Lowell Observatory-LONEOS MPS 215162
2007 09 05.48105 00 21 44.99 +06 03 59.6   699 – Lowell Observatory-LONEOS MPS 215162
2007 09 05.49756 00 21 44.28 +06 03 52.4   699 – Lowell Observatory-LONEOS MPS 215162
2007 09 12.30187 00 16 54.88 +05 11 57.7 20.6 R 683 – Goodricke-Pigott Observatory, Tucson MPS 215162
2007 09 12.31528 00 16 54.30 +05 11 52.8 19.8 R 683 – Goodricke-Pigott Observatory, Tucson MPS 215162
2007 09 13.30299 00 16 07.78 +05 03 36.0 18.9 V 703 – Catalina Sky Survey MPS 215162
2007 09 13.30312 00 16 07.77 +05 03 36.0 18.7 R 699 – Lowell Observatory-LONEOS MPS 215162
2007 09 13.31058 00 16 07.39 +05 03 32.6 18.9 V 703 – Catalina Sky Survey MPS 215162
2007 09 13.31816 00 16 06.99 +05 03 28.6 18.8 V 703 – Catalina Sky Survey MPS 215162
2007 09 13.32575 00 16 06.60 +05 03 25.2 19.1 V 703 – Catalina Sky Survey MPS 215162
2007 09 13.32873 00 16 06.50 +05 03 22.9   699 – Lowell Observatory-LONEOS MPS 215162
2007 09 13.35433 00 16 05.25 +05 03 08.8   699 – Lowell Observatory-LONEOS MPS 215162
2007 09 13.35735 00 16 05.05 +05 03 07.6 18.4 V G96 – Mt. Lemmon Survey MPS 215162
2007 09 13.36513 00 16 04.65 +05 03 03.4 19.0 V G96 – Mt. Lemmon Survey MPS 215162
2007 09 13.37294 00 16 04.26 +05 02 59.7 18.8 V G96 – Mt. Lemmon Survey MPS 215162
2007 09 13.37994 00 16 03.93 +05 02 56.8   699 – Lowell Observatory-LONEOS MPS 215162
2007 09 13.38067 00 16 03.86 +05 02 55.6 19.1 V G96 – Mt. Lemmon Survey MPS 215162
2007 09 14.24588 00 15 22.71 +04 55 33.1 19.0   704 – Lincoln Laboratory ETS, New Mexico MPS 216253
2007 09 14.25757 00 15 22.13 +04 55 26.2 19.3   704 – Lincoln Laboratory ETS, New Mexico MPS 216253
2007 09 14.28102 00 15 20.94 +04 55 15.3 19.0   704 – Lincoln Laboratory ETS, New Mexico MPS 216253
2007 09 14.29277 00 15 20.31 +04 55 09.6 19.3   704 – Lincoln Laboratory ETS, New Mexico MPS 216253
2007 09 14.40230 00 15 14.73 +04 54 12.1 18.8 R 699 – Lowell Observatory-LONEOS MPS 216253
2007 09 14.42785 00 15 13.41 +04 53 58.9   699 – Lowell Observatory-LONEOS MPS 216253
2007 09 14.45344 00 15 12.13 +04 53 45.4   699 – Lowell Observatory-LONEOS MPS 216253
2007 09 14.47902 00 15 10.79 +04 53 33.4   699 – Lowell Observatory-LONEOS MPS 216253
2007 09 15.29222 00 14 31.59 +04 46 29.1 19.5 R 683 – Goodricke-Pigott Observatory, Tucson MPS 216253
2007 09 15.30562 00 14 30.90 +04 46 24.3 20.2 R 683 – Goodricke-Pigott Observatory, Tucson MPS 216253
2007 09 15.31902 00 14 30.15 +04 46 15.0 19.4 R 683 – Goodricke-Pigott Observatory, Tucson MPS 216253
2007 09 16.23933 00 13 44.93 +04 38 09.4 18.8   704 – Lincoln Laboratory ETS, New Mexico MPS 216253
2007 09 16.25112 00 13 44.34 +04 38 03.0 19.5   704 – Lincoln Laboratory ETS, New Mexico MPS 216253
2007 09 16.26289 00 13 43.71 +04 37 56.5 19.6   704 – Lincoln Laboratory ETS, New Mexico MPS 216253
2007 09 16.27469 00 13 43.14 +04 37 50.4 19.1   704 – Lincoln Laboratory ETS, New Mexico MPS 216253
2007 09 16.28650 00 13 42.45 +04 37 43.8 19.0   704 – Lincoln Laboratory ETS, New Mexico MPS 216253
2007 09 21.27973 00 09 28.03 +03 52 09.2 18.4   704 – Lincoln Laboratory ETS, New Mexico MPS 217763
2007 09 21.29189 00 09 27.33 +03 52 02.4 19.0   704 – Lincoln Laboratory ETS, New Mexico MPS 217763
2007 09 21.30404 00 09 26.69 +03 51 55.5 19.2   704 – Lincoln Laboratory ETS, New Mexico MPS 217763
2007 09 21.31625 00 09 26.05 +03 51 48.8 19.0   704 – Lincoln Laboratory ETS, New Mexico MPS 217763
2007 09 21.32840 00 09 25.35 +03 51 41.7 19.2   704 – Lincoln Laboratory ETS, New Mexico MPS 217763
2007 10 06.20228 23 57 08.45 +01 33 18.2 19.1   704 – Lincoln Laboratory ETS, New Mexico MPS 218694
2007 10 06.21313 23 57 07.95 +01 33 12.6 19.5   704 – Lincoln Laboratory ETS, New Mexico MPS 218694
2007 10 06.22407 23 57 07.43 +01 33 06.2 19.7   704 – Lincoln Laboratory ETS, New Mexico MPS 218694
2007 10 06.23490 23 57 06.93 +01 33 01.4 19.5   704 – Lincoln Laboratory ETS, New Mexico MPS 218694
2007 10 06.24574 23 57 06.37 +01 32 55.7 20.1   704 – Lincoln Laboratory ETS, New Mexico MPS 218694
2007 10 07.32136 23 56 19.18 +01 23 29.2 19.6 r 699 – Lowell Observatory-LONEOS MPS 255713
2007 10 07.34695 23 56 18.13 +01 23 16.2   699 – Lowell Observatory-LONEOS MPS 255713
2007 10 07.37251 23 56 16.99 +01 23 04.5   699 – Lowell Observatory-LONEOS MPS 255713
2007 10 07.39808 23 56 15.66 +01 22 50.0   699 – Lowell Observatory-LONEOS MPS 255713
2007 10 08.20157 23 55 42.31 +01 15 55.4 19.4   704 – Lincoln Laboratory ETS, New Mexico MPS 218694
